Rechercher aéroport 
image banner adimage banner adimage banner ad
image banner ad

KLAX - Los Angeles Intl

Situé à Los Angeles, United States

ICAO - LAX, IATA - LAX

Données fournies par Airmate  

Information générale

Coordonnées: N33°56'33" W118°24'29"
Élévation : 128 feet MSL.
Variation magnétique : 12° East
Voir autres Aéroports à California

Données opérationnelles

Special qualification required
Heure actuelle UTC:
Heure actuelle locale:
Météo
METAR: KLAX 210153Z 25007KT 10SM FEW010 21/17 A2991 RMK AO2 SLP127 T02060167
TAF: KLAX 202334Z 2100/2206 26011KT P6SM SKC FM210300 25005KT P6SM SKC FM210500 VRB03KT P6SM SKC FM211000 09005KT 4SM HZ SCT004 FM211800 26010KT P6SM SKC FM220400 VRB03KT P6SM SKC
Voir NOTAMs / SUP AIP / TFR affectant cet aéroport [VIEW]
Fréquences de communication: [VIEW]

Pistes:

Identifiant RWYQFULongueur (ft)Largeur (ft)SurfaceLDA (ft)
06R83°10885150CONC9748
24L263°10885150CONC9483
06L83°8926150OTHER8566
24R263°8926150OTHER8926
07R83°11095200OTHER11095
25L263°11095200OTHER11095
07L83°12923150CONC11259
25R263°12923150CONC11134

Coordonnées de l'aéroport

Adresse: Los Angeles United States

Vue satellite de KLAX